Wind_Speed
14 14 14 15 16 17 17 17 17 17 17 17 17 17 17 17 17 17 17 17 16 18 19 19 19 18 19 19 21 21 21 21 21 20 20 19 20 21 24 24 26 29 28 26 26 29 29
13 13 14 15 15 16 17 17 17 18 18 18 18 18 18 18 18 18 18 18 19 20 19 20 20 21 22 25 21 19 18 16 16 16 16 17 18 19 21 23 25 25 24 25 27 28 32
16 17 18 17 18 18 18 19 20 21 21 22 22 22 22 21 22 22 22 22 22 22 22 23 24 24 26 24 23 18 16 20 23 21 19 19 19 20 21 22 26 28 29 30 29 28 30
18 19 20 21 21 21 21 22 22 23 24 24 24 25 26 27 26 27 26 27 28 27 28 28 30 31 32 28 22 18 25 27 26 23 22 21 20 22 24 26 28 28 32 33 29 27 28
23 23 24 24 24 25 26 27 27 28 29 29 30 30 30 31 31 30 30 30 30 31 31 31 33 34 32 20 24 31 35 33 31 27 24 23 22 23 24 26 28 26 30 30 27 26 29
23 23 24 26 27 28 29 29 30 30 31 32 32 32 33 34 34 33 33 34 34 34 32 33 32 23 27 32 37 38 36 34 30 25 22 21 22 24 27 26 26 26 26 26 26 26 29
23 24 25 26 26 26 27 27 29 30 30 30 32 33 33 33 34 35 35 35 36 38 30 32 36 36 37 35 37 30 26 22 18 16 17 19 22 27 22 24 26 25 29 31 32 34 38
22 22 23 24 25 27 29 31 32 34 35 36 36 36 37 36 37 36 36 35 34 36 38 33 30 32 27 20 18 13 11 11 9 10 12 14 17 12 16 20 25 29 32 35 36 36 36
21 23 26 29 32 34 36 38 40 40 41 41 41 40 39 37 36 35 34 33 32 34 35 31 27 12 7 7 8 8 10 8 8 10 12 16 19 25 26 27 30 33 35 36 37 38 38
26 28 32 35 38 42 45 44 45 45 44 41 39 39 38 34 29 27 28 28 28 29 26 10 3 7 5 6 9 8 7 9 10 12 21 20 25 26 27 29 29 35 31 31 29 25 14
31 34 37 40 42 44 46 46 43 40 38 36 34 32 30 32 29 26 25 22 21 21 7 5 5 3 5 7 11 11 10 16 21 24 28 34 35 32 30 32 29 31 28 25 24 22 22
35 38 41 44 47 48 49 48 45 42 39 34 32 32 31 26 24 23 19 16 14 5 7 5 6 9 9 10 12 18 24 25 30 33 34 36 33 33 28 26 26 27 24 21 21 19 6
39 44 45 45 46 47 48 47 44 42 38 33 30 28 29 26 22 21 18 13 6 8 4 4 8 13 20 22 27 27 27 25 22 22 26 27 24 24 25 28 29 28 20 3 4 1 6
43 45 46 46 47 47 46 43 41 39 35 31 30 25 26 24 23 22 18 12 9 8 11 19 24 26 27 26 20 12 24 31 31 30 34 25 18 21 19 22 23 18 22 9 7 4 3
46 46 45 46 48 47 47 44 41 38 35 31 26 23 23 23 27 23 18 8 7 7 10 18 28 29 15 6 15 20 20 27 17 16 13 8 7 7 14 16 18 10 19 18 8 15 2
48 48 47 49 49 48 49 46 42 38 35 33 27 24 24 27 25 22 25 21 23 18 23 28 27 14 21 24 21 26 30 24 24 21 19 11 13 14 18 19 20 24 12 6 5 3 4
50 49 48 49 49 48 49 46 43 41 36 34 33 30 30 29 29 27 27 24 23 22 21 15 17 27 33 36 32 19 9 15 24 6 15 26 11 11 11 11 19 17 22 15 5 6 2
50 48 48 50 50 48 50 48 43 43 42 37 39 38 31 24 20 17 15 17 18 19 21 29 30 26 21 10 25 23 18 13 22 32 31 21 9 16 20 24 22 18 17 10 5 4 10
48 47 47 49 51 48 48 47 43 43 44 44 40 38 29 26 16 14 14 19 21 19 15 10 13 16 24 25 18 13 22 33 31 26 20 18 6 10 8 6 4 5 10 16 13 21 16
47 48 47 47 49 46 46 45 44 43 42 41 40 33 28 22 6 14 19 22 18 15 22 31 27 33 27 29 28 32 31 30 24 27 27 23 22 21 17 15 23 22 21 24 22 10 21
45 47 48 47 47 46 44 42 43 42 44 43 40 33 35 24 26 26 25 27 27 20 20 21 21 19 25 25 23 20 24 18 22 29 32 20 22 18 24 29 27 30 28 29 31 34 26
45 46 48 47 47 46 45 43 38 40 44 42 36 34 32 36 24 23 20 24 25 20 21 28 22 19 21 26 29 31 27 30 34 28 25 19 21 28 37 30 22 26 28 27 26 30 35
45 46 47 45 45 45 45 41 40 42 43 43 36 33 33 34 31 27 22 16 21 23 24 25 30 36 35 32 29 26 26 29 29 27 28 28 25 22 17 22 17 13 26 16 15 22 18
45 45 47 47 47 46 44 41 42 44 44 42 35 28 29 36 30 25 27 26 30 29 29 28 24 26 27 27 25 31 29 26 21 23 26 26 27 19 19 19 6 14 8 18 23 16 13
45 45 45 47 47 45 43 44 45 44 41 32 23 23 26 35 32 26 28 26 25 22 27 20 10 14 16 29 28 19 21 19 15 15 20 24 23 19 10 7 12 22 17 13 13 19 20
44 45 46 46 46 45 44 47 47 44 35 22 21 21 22 33 32 29 33 27 31 28 21 18 19 22 14 22 19 11 10 17 8 10 3 18 12 18 14 5 4 13 16 20 14 15 4
47 47 48 48 46 46 48 48 48 41 23 19 22 23 25 31 27 29 31 32 23 25 32 27 23 13 23 27 20 19 19 14 10 12 9 14 15 16 20 13 12 18 13 10 5 12 26
49 49 49 49 49 48 49 47 43 26 20 22 22 23 26 31 32 35 32 25 33 40 37 28 30 27 20 17 14 17 19 18 17 27 20 22 12 16 10 7 10 10 10 14 25 33 31
52 52 52 52 51 50 48 41 26 22 20 20 23 24 25 27 33 36 35 37 27 25 27 26 22 20 22 16 15 19 23 33 34 36 29 18 17 22 17 22 29 31 33 32 37 35 28
Wind_Direction
360 360 356 353 350 349 347 345 341 338 337 335 334 334 332 331 329 327 326 325 324 323 323 321 318 316 313 310 306 298 293 288 287 284 282 275 266 262 258 255 248 250 253 255 262 267 265
2 359 355 351 348 344 340 336 333 329 327 325 324 322 321 320 319 318 317 316 316 316 315 313 315 315 313 316 310 302 295 295 294 286 276 270 263 259 259 255 254 259 262 267 265 265 269
350 346 341 336 332 329 327 326 324 322 321 320 319 319 318 317 316 314 313 310 308 306 306 306 306 306 305 304 307 297 296 302 301 292 281 272 260 247 248 256 256 263 268 271 270 271 271
336 332 330 328 327 325 323 320 317 315 313 312 312 313 312 310 308 306 305 304 305 305 305 305 304 304 305 301 292 285 299 301 300 288 277 271 261 250 248 255 262 268 272 273 276 275 272
331 330 329 327 324 323 321 320 320 319 317 316 315 313 310 309 307 305 304 303 302 303 304 303 301 299 298 291 292 297 298 298 295 284 273 264 255 251 252 253 260 263 262 270 276 273 275
328 327 326 324 323 323 322 321 318 316 315 313 312 310 310 309 307 304 303 300 299 300 301 299 296 292 290 289 293 291 293 292 288 278 265 256 253 252 249 247 249 269 266 275 275 278 275
325 326 326 326 326 326 325 324 323 321 319 319 319 317 316 315 312 311 310 308 307 309 309 305 298 293 290 290 287 290 285 279 277 269 259 255 252 255 274 272 272 269 274 276 277 278 279
329 331 331 330 329 327 324 321 318 316 314 314 311 310 310 311 311 313 314 314 318 315 315 314 305 293 289 287 287 282 278 279 278 267 253 252 268 288 271 268 268 272 274 276 282 280 281
335 334 331 328 326 324 321 319 317 315 312 311 310 309 308 312 311 307 305 309 312 312 315 309 298 301 295 286 292 279 278 271 264 267 278 271 283 287 283 277 273 270 270 276 278 284 283
333 332 330 329 327 324 321 320 318 316 314 312 312 310 309 310 313 308 305 306 310 316 312 307 268 276 291 306 290 279 246 279 276 282 296 288 289 292 285 277 275 273 277 277 274 274 269
332 332 329 326 326 325 324 323 320 319 318 318 319 318 320 320 319 316 312 311 312 318 330 289 264 252 295 288 279 280 275 283 290 293 292 288 287 281 273 273 271 271 274 271 269 267 275
332 331 329 328 328 330 329 327 325 324 324 323 325 324 320 322 321 316 317 310 310 297 252 282 271 292 295 288 279 282 295 293 298 297 296 294 286 273 270 267 264 264 264 264 268 267 261
332 329 326 327 330 327 324 322 321 321 323 323 324 324 321 324 326 324 321 313 294 222 291 270 281 287 290 291 293 294 292 296 302 299 296 293 282 280 277 266 258 251 243 265 258 198 238
329 327 328 330 327 325 323 321 320 318 319 321 320 322 319 324 328 326 318 303 235 264 259 284 291 284 293 303 296 289 307 306 304 292 283 278 278 275 268 266 254 252 226 207 239 212 255
325 325 326 328 328 326 326 325 323 320 321 323 320 320 315 315 321 315 319 292 281 300 288 293 290 293 300 219 319 317 320 306 285 271 251 306 262 255 266 261 247 247 227 240 261 276 298
324 323 326 328 328 327 327 328 326 324 324 322 320 319 314 311 311 303 305 289 284 281 279 285 297 282 291 293 293 300 302 281 278 272 258 256 284 278 262 255 246 242 256 266 207 253 243
323 323 325 327 327 327 327 327 326 323 324 321 322 324 319 313 306 298 291 289 292 288 288 293 285 285 288 294 294 301 271 287 308 322 312 328 275 280 291 291 289 263 246 248 238 264 294
320 323 326 327 326 328 328 326 326 324 323 324 322 326 322 320 310 297 294 294 284 271 272 282 288 293 293 281 313 305 291 274 303 311 320 317 288 286 298 289 270 266 251 226 178 226 244
319 322 324 326 327 327 327 324 325 323 322 322 323 323 321 319 315 307 300 287 288 293 286 290 295 287 299 312 315 299 288 299 299 292 309 298 281 308 287 262 275 266 283 290 279 256 234
321 322 324 326 323 323 322 320 321 319 319 319 322 323 316 325 290 269 276 278 275 267 282 299 297 301 303 300 299 296 305 301 294 290 297 275 280 266 252 283 297 282 282 295 292 242 262
320 321 322 324 319 317 317 316 316 319 319 319 319 317 313 302 291 286 285 287 294 307 303 302 299 299 306 311 317 309 317 304 323 296 282 279 266 259 283 296 288 273 284 286 271 274 261
318 321 319 318 315 315 314 316 316 318 315 315 315 314 308 305 312 313 296 296 297 309 291 299 303 304 303 295 312 313 306 305 300 309 312 266 269 286 291 291 285 275 288 288 285 283 273
317 318 314 313 312 311 312 313 312 312 310 311 312 306 303 303 308 321 319 312 299 307 299 295 288 293 292 297 303 303 303 298 292 287 288 276 278 282 274 285 275 269 285 283 291 292 292
315 314 312 312 311 310 309 309 309 312 312 311 309 302 296 295 303 317 315 300 298 306 304 301 285 295 297 299 291 302 300 306 297 281 271 261 263 264 274 272 246 277 279 284 291 297 294
311 311 310 310 308 306 305 305 306 311 313 308 301 288 288 289 295 307 307 307 310 308 308 318 328 318 301 302 308 313 315 316 310 294 272 258 258 259 243 206 286 290 294 299 295 305 311
308 307 307 305 304 302 302 302 305 308 304 291 285 275 284 281 290 305 304 311 315 319 322 303 305 306 297 313 311 289 288 283 295 293 284 336 310 275 298 269 238 302 294 299 302 300 333
306 306 305 304 302 301 301 302 305 308 283 269 272 279 277 286 295 293 296 305 306 311 307 301 309 280 304 311 299 287 267 274 276 288 302 324 307 270 278 261 261 292 286 304 288 297 315
303 303 301 300 299 300 299 302 306 299 280 258 267 273 282 280 279 280 288 291 300 302 298 303 295 291 292 297 282 286 293 287 278 296 281 293 285 277 273 235 274 298 280 300 308 299 302
301 300 299 298 297 297 299 303 292 288 289 257 263 269 277 282 274 280 286 294 290 301 296 287 280 290 283 289 286 286 281 285 297 284 290 260 275 281 267 272 285 282 284 304 305 298 303
Height
3183 3180 3178 3176 3173 3170 3167 3164 3161 3158 3154 3151 3148 3144 3141 3138 3134 3131 3128 3125 3121 3119 3116 3113 3110 3108 3105 3103 3101 3098 3095 3093 3092 3090 3088 3087 3086 3086 3085 3084 3083 3080 3081 3082 3082 3081 3081
3182 3179 3177 3174 3171 3168 3165 3162 3159 3155 3152 3148 3145 3141 3138 3135 3131 3128 3124 3121 3118 3115 3112 3109 3106 3104 3102 3100 3096 3093 3090 3088 3087 3085 3083 3081 3080 3081 3081 3080 3079 3078 3077 3077 3076 3076 3073
3181 3178 3176 3172 3169 3166 3163 3159 3156 3152 3149 3145 3142 3138 3135 3132 3128 3124 3120 3117 3113 3110 3107 3104 3101 3098 3096 3095 3090 3088 3086 3084 3082 3081 3080 3078 3076 3075 3075 3076 3074 3072 3071 3069 3070 3069 3067
3180 3177 3174 3171 3167 3164 3160 3156 3152 3148 3145 3141 3138 3135 3131 3127 3123 3120 3116 3113 3109 3105 3102 3099 3095 3092 3089 3086 3083 3081 3080 3078 3077 3075 3074 3073 3073 3072 3071 3071 3070 3069 3065 3062 3064 3063 3059
3178 3174 3171 3168 3165 3161 3157 3153 3148 3145 3141 3137 3134 3130 3126 3122 3117 3114 3110 3106 3103 3099 3097 3093 3089 3085 3082 3079 3078 3075 3073 3072 3070 3068 3067 3066 3067 3067 3067 3065 3064 3063 3057 3055 3057 3057 3053
3175 3172 3168 3165 3162 3158 3154 3150 3146 3142 3138 3134 3130 3125 3121 3116 3110 3106 3103 3099 3095 3092 3091 3085 3080 3080 3075 3072 3070 3067 3065 3063 3061 3060 3060 3061 3061 3061 3060 3060 3056 3057 3054 3052 3051 3050 3046
3172 3168 3165 3161 3157 3154 3149 3145 3141 3137 3133 3128 3124 3120 3115 3110 3105 3100 3096 3093 3090 3085 3083 3079 3074 3068 3064 3063 3060 3059 3056 3055 3055 3055 3054 3056 3056 3052 3056 3056 3054 3053 3051 3047 3047 3045 3040
3169 3165 3162 3158 3155 3151 3147 3142 3138 3133 3128 3123 3117 3113 3108 3105 3099 3094 3088 3085 3081 3076 3070 3067 3063 3057 3055 3054 3053 3052 3053 3053 3052 3052 3051 3053 3050 3051 3050 3050 3049 3047 3043 3040 3038 3037 3032
3166 3162 3159 3155 3151 3147 3142 3137 3133 3127 3122 3117 3110 3105 3099 3096 3092 3088 3083 3079 3074 3069 3063 3062 3053 3050 3050 3051 3049 3050 3050 3049 3049 3050 3050 3049 3049 3048 3046 3045 3042 3038 3035 3032 3031 3029 3025
3164 3160 3156 3151 3146 3140 3135 3129 3123 3118 3113 3108 3102 3096 3090 3087 3086 3079 3075 3072 3069 3064 3057 3053 3050 3048 3049 3048 3049 3047 3047 3049 3048 3047 3045 3041 3041 3040 3040 3037 3038 3030 3031 3027 3025 3023 3020
3162 3157 3152 3146 3140 3133 3127 3121 3115 3110 3105 3100 3094 3088 3083 3077 3077 3074 3072 3068 3065 3064 3062 3051 3049 3048 3048 3050 3049 3047 3046 3044 3043 3041 3041 3036 3033 3032 3030 3030 3029 3025 3024 3022 3020 3018 3015
3158 3153 3147 3141 3134 3126 3119 3112 3107 3103 3099 3094 3088 3082 3077 3075 3071 3070 3067 3064 3064 3064 3054 3048 3046 3046 3046 3046 3045 3044 3043 3040 3037 3033 3029 3027 3025 3023 3022 3022 3021 3019 3018 3017 3015 3013 3010
3154 3149 3143 3136 3129 3121 3115 3107 3101 3097 3092 3087 3083 3079 3073 3070 3067 3064 3062 3061 3061 3055 3049 3045 3043 3041 3040 3041 3040 3038 3035 3034 3034 3028 3023 3019 3017 3016 3016 3015 3014 3013 3013 3014 3012 3011 2999
3149 3144 3137 3131 3123 3116 3108 3101 3095 3091 3087 3083 3079 3075 3070 3067 3063 3060 3058 3058 3056 3047 3046 3042 3039 3036 3035 3034 3031 3031 3029 3026 3027 3024 3018 3013 3008 3010 3009 3009 3008 3006 3008 3006 2999 3000 2994
3143 3137 3130 3124 3117 3109 3102 3095 3089 3083 3080 3079 3074 3072 3067 3063 3060 3057 3057 3057 3052 3049 3045 3041 3037 3033 3031 3030 3029 3026 3024 3022 3019 3017 3017 3012 3005 3002 3002 3002 3004 3003 3001 3000 2997 2994 2993
3136 3130 3123 3117 3110 3103 3097 3088 3084 3079 3074 3071 3071 3067 3063 3060 3057 3054 3053 3047 3047 3047 3042 3039 3036 3035 3030 3027 3026 3023 3019 3017 3016 3013 3008 3008 3004 2997 2997 2999 2998 2997 3001 2998 2995 2992 2987
3129 3123 3116 3110 3104 3096 3090 3084 3077 3073 3070 3066 3063 3060 3057 3054 3050 3049 3045 3041 3041 3038 3036 3036 3032 3028 3027 3022 3019 3016 3012 3011 3009 3006 3004 3004 3000 2996 2995 2995 2994 2993 2992 2994 2994 2993 2989
3122 3116 3109 3102 3098 3091 3085 3079 3073 3067 3062 3062 3055 3054 3048 3045 3047 3041 3040 3039 3038 3033 3032 3029 3027 3025 3020 3015 3012 3011 3008 3008 3006 3005 3002 3000 2997 2993 2993 2991 2987 2985 2984 2988 2988 2990 2987
3115 3108 3102 3096 3091 3086 3080 3075 3069 3063 3056 3052 3048 3047 3042 3038 3035 3035 3033 3032 3031 3028 3025 3026 3022 3019 3015 3013 3011 3004 3004 3004 3002 3001 2999 2997 2992 2990 2985 2987 2984 2981 2982 2982 2980 2979 2976
3106 3100 3094 3088 3085 3080 3075 3069 3064 3059 3053 3049 3044 3039 3035 3031 3030 3029 3024 3024 3023 3024 3019 3019 3015 3014 3012 3008 3007 2999 2999 2996 2996 2994 2992 2991 2985 2985 2983 2980 2982 2979 2978 2976 2975 2973 2968
3099 3093 3086 3080 3079 3074 3070 3065 3060 3054 3047 3044 3038 3035 3028 3029 3028 3027 3024 3020 3016 3015 3016 3014 3010 3009 3007 3002 2999 2996 2995 2990 2988 2986 2983 2982 2977 2976 2976 2974 2974 2971 2971 2970 2966 2963 2965
3090 3084 3080 3075 3071 3067 3062 3058 3055 3047 3040 3039 3034 3029 3022 3019 3020 3019 3019 3016 3012 3012 3011 3007 3005 3003 3001 2999 2997 2990 2989 2987 2984 2983 2979 2975 2971 2970 2965 2966 2963 2962 2961 2958 2958 2955 2954
3080 3076 3073 3068 3065 3060 3055 3050 3044 3039 3033 3028 3026 3023 3019 3014 3012 3013 3013 3010 3007 3006 3003 3003 2999 2995 2993 2993 2990 2987 2983 2980 2977 2976 2973 2972 2967 2964 2959 2959 2958 2956 2952 2951 2951 2949 2949
3073 3069 3066 3062 3058 3054 3048 3043 3038 3032 3027 3022 3019 3016 3013 3007 3008 3010 3008 3006 3002 3000 2995 2994 2992 2989 2988 2985 2981 2980 2976 2972 2969 2966 2965 2961 2961 2961 2955 2954 2952 2946 2947 2946 2945 2944 2943
3065 3061 3057 3054 3050 3046 3041 3035 3030 3024 3020 3015 3014 3012 3008 3000 3001 3005 3003 2998 2996 2994 2992 2987 2985 2984 2982 2980 2975 2969 2968 2964 2961 2958 2957 2956 2957 2953 2949 2946 2945 2944 2943 2942 2940 2940 2937
3056 3051 3047 3044 3041 3037 3031 3025 3020 3016 3012 3007 3008 3006 3003 2997 2997 2996 2994 2993 2988 2985 2984 2982 2980 2978 2976 2973 2972 2967 2964 2960 2957 2954 2952 2952 2952 2952 2948 2945 2944 2938 2939 2938 2936 2933 2932
3046 3042 3038 3034 3030 3026 3020 3015 3009 3006 3003 3000 2999 3000 2996 2991 2993 2990 2987 2986 2984 2981 2978 2977 2975 2972 2971 2969 2965 2962 2958 2957 2954 2951 2950 2948 2947 2945 2942 2940 2936 2935 2934 2933 2934 2936 2929
3035 3031 3027 3022 3017 3014 3009 3004 2999 2996 2995 2994 2992 2991 2990 2985 2984 2981 2981 2979 2977 2975 2971 2971 2969 2967 2965 2964 2962 2959 2954 2952 2949 2947 2946 2945 2944 2940 2938 2937 2933 2929 2930 2931 2929 2926 2923
3023 3019 3014 3010 3005 3001 2997 2993 2990 2988 2987 2986 2984 2983 2982 2980 2976 2974 2972 2971 2970 2969 2965 2963 2964 2963 2961 2960 2957 2953 2950 2946 2943 2935 2937 2938 2937 2936 2934 2929 2927 2925 2923 2922 2921 2919 2916